1998-067WL

Last updated on Thu Sep 12 2024 00:02:08 GMT+0000 (Coordinated Universal Time)

1 59561U 98067WL 24255.22948938 .00102546 00000+0 93979-3 0 9996 2 59561 51.6290 240.9901 0001945 44.0442 316.0709 15.66950243 22734
UTC large
Height (km)
Speed (km/s)
/
Latitude / Longitude
Inclination (degrees)
Orbital Period (minutes)
Azimuth
Elevation
Range (km)
Doppler Factor

Next 0 passes for location: London (51.5072 / 0.1276)

Sorry there are no passes over London.